User: anonymous   Login
Location: Lake Runnemede Observatory
(43.4843°N, 72.3851°W)
Time: 11:27:08
(UTC-04:00)
Language:

SPOT 5 - Orbit

View from above orbital plane
View from above orbital plane
View from above satellite
View from above satellite

Ground track
Ground track

The orbit data is extracted from the following two-line orbital elements,

1 27421U 02021A   14297.14856373  .00000485  00000-0  24735-3 0   601
2 27421 098.5473 356.0903 0001352 105.4732 338.9810 14.20117539646622
Epoch (UTC): 24 October 2014 03:33:55
Eccentricity: 0.0001352
inclination: 98.5473°
perigee height: 824 km
apogee height: 826 km
right ascension of ascending node: 356.0903°
argument of perigee: 105.4732°
revolutions per day: 14.20117539
mean anomaly at epoch: 338.9810°
orbit number at epoch: 64662

The dashed part of the orbit path shows where the satellite is in the earth's shadow,  

DLR